Location: Central Coast
(33.3208°S, 151.2336°E)
Time: 00:53:25
(UTC+11:00)

Envisat - Pass Details

Date: 12 October 2017
Orbit: 764 x 766 km, 98.2° (Epoch: 21 October)

Event Time Altitude Azimuth Distance (km) Brightness Sun altitude
Rises 21:03:15 0° 161° (SSE) 3,266 6.4 -24.1°
Reaches altitude 10° 21:05:39 10° 156° (SSE) 2,331 5.5 -24.5°
Enters shadow 21:08:27 30° 138° (SE) 1,355 4.1 -25.0°
